Time,TemperatureF,DewpointF,PressureIn,WindDirection,WindDirectionDegrees,WindSpeedMPH,WindSpeedGustMPH,Humidity,HourlyPrecipIn,Conditions,Clouds,dailyrainin,SolarRadiationWatts/m^2,SoftwareType,DateUTC
2013-06-21 00:01:00,56.8,50.0,29.96,SE,133,2.0,8.0,78,0.00,,,0.00,0,weatherlink.com 1.10,2013-06-21 07:01:00,
2013-06-21 00:16:00,56.6,50.0,29.96,SE,137,3.0,5.0,79,0.00,,,0.00,0,weatherlink.com 1.10,2013-06-21 07:16:00,
2013-06-21 00:31:00,56.1,50.0,29.96,SSE,150,3.0,5.0,79,0.00,,,0.00,0,weatherlink.com 1.10,2013-06-21 07:31:00,
2013-06-21 00:46:00,55.9,50.0,29.96,SE,135,3.0,6.0,80,0.00,,,0.00,0,weatherlink.com 1.10,2013-06-21 07:46:00,
2013-06-21 01:01:00,55.6,50.0,29.96,SSE,157,3.0,7.0,80,0.00,,,0.00,0,weatherlink.com 1.10,2013-06-21 08:01:00,
2013-06-21 01:17:00,55.5,50.0,29.96,SE,143,1.0,5.0,81,0.00,,,0.00,0,weatherlink.com 1.10,2013-06-21 08:17:00,
2013-06-21 01:32:00,55.3,50.0,29.96,SE,133,1.0,4.0,82,0.00,,,0.00,0,weatherlink.com 1.10,2013-06-21 08:32:00,
2013-06-21 01:47:00,55.1,50.0,29.95,SE,129,3.0,5.0,83,0.00,,,0.00,0,weatherlink.com 1.10,2013-06-21 08:47:00,
2013-06-21 02:02:00,54.9,50.0,29.95,ESE,115,1.0,3.0,84,0.00,,,0.00,0,weatherlink.com 1.10,2013-06-21 09:02:00,
2013-06-21 02:17:00,54.6,50.0,29.95,SE,134,0.0,3.0,85,0.00,,,0.00,0,weatherlink.com 1.10,2013-06-21 09:17:00,
2013-06-21 02:32:00,54.4,50.0,29.95,SE,134,2.0,4.0,86,0.00,,,0.00,0,weatherlink.com 1.10,2013-06-21 09:32:00,
2013-06-21 02:47:00,54.0,50.0,29.95,SE,138,0.0,2.0,86,0.00,,,0.00,0,weatherlink.com 1.10,2013-06-21 09:47:00,
2013-06-21 03:02:00,53.9,50.0,29.95,SE,132,3.0,5.0,87,0.00,,,0.00,0,weatherlink.com 1.10,2013-06-21 10:02:00,
2013-06-21 03:17:00,53.8,50.0,29.94,ESE,123,3.0,5.0,87,0.00,,,0.00,0,weatherlink.com 1.10,2013-06-21 10:17:00,
2013-06-21 03:32:00,53.7,50.0,29.94,SE,134,2.0,5.0,88,0.00,,,0.00,0,weatherlink.com 1.10,2013-06-21 10:32:00,
2013-06-21 03:47:00,53.5,50.0,29.94,SE,136,4.0,5.0,89,0.00,,,0.00,0,weatherlink.com 1.10,2013-06-21 10:47:00,
2013-06-21 04:02:00,53.3,50.0,29.94,ESE,121,3.0,5.0,89,0.00,,,0.00,0,weatherlink.com 1.10,2013-06-21 11:02:00,
2013-06-21 04:17:00,53.2,50.0,29.94,SSE,159,3.0,4.0,90,0.00,,,0.00,0,weatherlink.com 1.10,2013-06-21 11:17:00,
2013-06-21 04:32:00,53.0,50.0,29.94,SSE,168,2.0,5.0,90,0.00,,,0.00,0,weatherlink.com 1.10,2013-06-21 11:32:00,
2013-06-21 04:47:00,52.9,50.0,29.95,SE,125,3.0,6.0,91,0.00,,,0.00,0,weatherlink.com 1.10,2013-06-21 11:47:00,
2013-06-21 05:02:00,52.8,50.0,29.94,SE,130,1.0,5.0,91,0.00,,,0.00,0,weatherlink.com 1.10,2013-06-21 12:02:00,
2013-06-21 05:17:00,52.9,51.0,29.94,East,99,3.0,5.0,92,0.00,,,0.00,0,weatherlink.com 1.10,2013-06-21 12:17:00,
2013-06-21 05:32:00,52.9,51.0,29.95,ESE,123,1.0,3.0,92,0.00,,,0.00,0,weatherlink.com 1.10,2013-06-21 12:32:00,
2013-06-21 05:47:00,52.7,51.0,29.95,SE,128,3.0,4.0,92,0.00,,,0.00,0,weatherlink.com 1.10,2013-06-21 12:47:00,
2013-06-21 06:02:00,52.8,51.0,29.95,SE,134,3.0,5.0,92,0.00,,,0.00,0,weatherlink.com 1.10,2013-06-21 13:02:00,
2013-06-21 06:17:00,52.7,51.0,29.95,SE,126,0.0,6.0,92,0.00,,,0.00,0,weatherlink.com 1.10,2013-06-21 13:17:00,
2013-06-21 06:32:00,52.8,50.0,29.96,SE,130,2.0,6.0,91,0.00,,,0.00,0,weatherlink.com 1.10,2013-06-21 13:32:00,
2013-06-21 06:47:00,52.9,50.0,29.96,SE,130,1.0,2.0,91,0.00,,,0.00,0,weatherlink.com 1.10,2013-06-21 13:47:00,
2013-06-21 07:02:00,53.0,50.0,29.96,ESE,113,0.0,2.0,90,0.00,,,0.00,0,weatherlink.com 1.10,2013-06-21 14:02:00,
2013-06-21 07:17:00,53.3,50.0,29.97,SE,136,0.0,3.0,89,0.00,,,0.00,0,weatherlink.com 1.10,2013-06-21 14:17:00,
2013-06-21 07:32:00,54.3,51.0,29.97,SSE,148,1.0,7.0,88,0.00,,,0.00,0,weatherlink.com 1.10,2013-06-21 14:32:00,
2013-06-21 07:47:00,55.3,52.0,29.97,SE,142,3.0,8.0,87,0.00,,,0.00,0,weatherlink.com 1.10,2013-06-21 14:47:00,
2013-06-21 08:02:00,56.4,53.0,29.96,SE,142,0.0,5.0,87,0.00,,,0.00,0,weatherlink.com 1.10,2013-06-21 15:02:00,
2013-06-21 08:17:00,58.3,54.0,29.97,SE,137,3.0,6.0,84,0.00,,,0.00,0,weatherlink.com 1.10,2013-06-21 15:17:00,
2013-06-21 08:32:00,60.1,54.0,29.98,SE,137,2.0,5.0,81,0.00,,,0.00,0,weatherlink.com 1.10,2013-06-21 15:32:00,
2013-06-21 08:47:00,61.5,54.0,29.98,SE,138,3.0,6.0,76,0.00,,,0.00,0,weatherlink.com 1.10,2013-06-21 15:47:00,
2013-06-21 09:02:00,62.5,55.0,29.98,SSE,155,3.0,5.0,77,0.00,,,0.00,0,weatherlink.com 1.10,2013-06-21 16:02:00,
2013-06-21 09:17:00,63.7,56.0,29.98,SE,142,1.0,3.0,77,0.00,,,0.00,0,weatherlink.com 1.10,2013-06-21 16:17:00,
2013-06-21 09:32:00,64.4,56.0,29.98,SW,214,2.0,5.0,73,0.00,,,0.00,0,weatherlink.com 1.10,2013-06-21 16:32:00,
2013-06-21 09:47:00,64.8,56.0,29.98,WSW,239,1.0,5.0,72,0.00,,,0.00,0,weatherlink.com 1.10,2013-06-21 16:47:00,
2013-06-21 10:03:00,65.7,56.0,29.97,SW,225,3.0,5.0,70,0.00,,,0.00,0,weatherlink.com 1.10,2013-06-21 17:03:00,
2013-06-21 10:18:00,66.9,56.0,29.98,SE,135,1.0,4.0,67,0.00,,,0.00,0,weatherlink.com 1.10,2013-06-21 17:18:00,
2013-06-21 10:48:00,69.0,56.0,29.97,SSW,199,2.0,5.0,63,0.00,,,0.00,0,weatherlink.com 1.10,2013-06-21 17:48:00,
2013-06-21 11:03:00,69.6,55.0,29.97,South,178,3.0,5.0,61,0.00,,,0.00,0,weatherlink.com 1.10,2013-06-21 18:03:00,
2013-06-21 11:18:00,70.1,55.0,29.97,South,171,1.0,6.0,60,0.00,,,0.00,0,weatherlink.com 1.10,2013-06-21 18:18:00,
2013-06-21 11:33:00,70.6,54.0,29.97,SSE,167,3.0,7.0,57,0.00,,,0.00,0,weatherlink.com 1.10,2013-06-21 18:33:00,
2013-06-21 11:48:00,70.1,54.0,29.98,SSW,199,4.0,8.0,58,0.00,,,0.00,0,weatherlink.com 1.10,2013-06-21 18:48:00,
2013-06-21 12:03:00,70.2,53.0,29.98,SSW,202,3.0,8.0,55,0.00,,,0.00,0,weatherlink.com 1.10,2013-06-21 19:03:00,
2013-06-21 12:18:00,69.9,53.0,29.98,South,191,7.0,9.0,55,0.00,,,0.00,0,weatherlink.com 1.10,2013-06-21 19:18:00,
2013-06-21 12:33:00,70.4,53.0,29.97,SSE,167,8.0,10.0,55,0.00,,,0.00,0,weatherlink.com 1.10,2013-06-21 19:33:00,
2013-06-21 13:03:00,68.2,53.0,29.98,ESE,116,7.0,11.0,59,0.00,,,0.00,0,weatherlink.com 1.10,2013-06-21 20:03:00,
2013-06-21 13:18:00,67.2,54.0,29.98,South,175,8.0,10.0,62,0.00,,,0.00,0,weatherlink.com 1.10,2013-06-21 20:18:00,
2013-06-21 13:33:00,66.9,53.0,29.98,SSW,199,5.0,11.0,62,0.00,,,0.00,0,weatherlink.com 1.10,2013-06-21 20:33:00,
2013-06-21 14:03:00,70.6,54.0,29.97,SSE,151,7.0,14.0,56,0.00,,,0.00,0,weatherlink.com 1.10,2013-06-21 21:03:00,
2013-06-21 14:18:00,70.3,54.0,29.97,South,186,4.0,10.0,57,0.00,,,0.00,0,weatherlink.com 1.10,2013-06-21 21:18:00,
2013-06-21 14:33:00,69.2,53.0,29.97,SSW,192,7.0,12.0,57,0.00,,,0.00,0,weatherlink.com 1.10,2013-06-21 21:33:00,
2013-06-21 14:48:00,68.0,53.0,29.96,SSE,167,6.0,14.0,60,0.00,,,0.00,0,weatherlink.com 1.10,2013-06-21 21:48:00,
2013-06-21 15:03:00,69.5,53.0,29.96,East,101,8.0,16.0,57,0.00,,,0.00,0,weatherlink.com 1.10,2013-06-21 22:03:00,
2013-06-21 15:18:00,68.5,54.0,29.96,South,175,6.0,12.0,61,0.00,,,0.00,0,weatherlink.com 1.10,2013-06-21 22:18:00,
2013-06-21 15:33:00,68.4,54.0,29.95,SE,146,6.0,10.0,61,0.00,,,0.00,0,weatherlink.com 1.10,2013-06-21 22:33:00,
2013-06-21 15:48:00,68.6,55.0,29.95,SE,132,8.0,11.0,62,0.00,,,0.00,0,weatherlink.com 1.10,2013-06-21 22:48:00,
2013-06-21 16:03:00,68.9,55.0,29.95,SSW,207,8.0,11.0,62,0.00,,,0.00,0,weatherlink.com 1.10,2013-06-21 23:03:00,
2013-06-21 16:18:00,68.1,55.0,29.95,SSE,161,6.0,12.0,63,0.00,,,0.00,0,weatherlink.com 1.10,2013-06-21 23:18:00,
2013-06-21 16:33:00,67.2,55.0,29.95,SSE,150,8.0,10.0,65,0.00,,,0.00,0,weatherlink.com 1.10,2013-06-21 23:33:00,
2013-06-21 16:48:00,66.3,55.0,29.95,SSE,160,7.0,12.0,66,0.00,,,0.00,0,weatherlink.com 1.10,2013-06-21 23:48:00,
2013-06-21 17:03:00,66.1,55.0,29.95,ESE,123,8.0,12.0,67,0.00,,,0.00,0,weatherlink.com 1.10,2013-06-22 00:03:00,
2013-06-21 17:18:00,65.8,54.0,29.94,South,172,6.0,10.0,65,0.00,,,0.00,0,weatherlink.com 1.10,2013-06-22 00:18:00,
2013-06-21 17:33:00,65.3,54.0,29.93,South,173,5.0,11.0,67,0.00,,,0.00,0,weatherlink.com 1.10,2013-06-22 00:33:00,
2013-06-21 17:48:00,65.4,55.0,29.93,ESE,123,8.0,11.0,68,0.00,,,0.00,0,weatherlink.com 1.10,2013-06-22 00:48:00,
2013-06-21 18:03:00,66.0,55.0,29.93,SSE,151,6.0,9.0,67,0.00,,,0.00,0,weatherlink.com 1.10,2013-06-22 01:03:00,
2013-06-21 18:18:00,65.9,55.0,29.92,SSE,165,5.0,9.0,68,0.00,,,0.00,0,weatherlink.com 1.10,2013-06-22 01:18:00,
2013-06-21 18:33:00,64.8,54.0,29.93,SSW,207,7.0,9.0,69,0.00,,,0.00,0,weatherlink.com 1.10,2013-06-22 01:33:00,
2013-06-21 18:48:00,64.6,55.0,29.92,SW,223,5.0,8.0,70,0.00,,,0.00,0,weatherlink.com 1.10,2013-06-22 01:48:00,
2013-06-21 19:03:00,64.6,54.0,29.92,SSW,210,3.0,8.0,69,0.00,,,0.00,0,weatherlink.com 1.10,2013-06-22 02:03:00,
2013-06-21 19:18:00,65.1,55.0,29.92,SSE,165,4.0,8.0,69,0.00,,,0.00,0,weatherlink.com 1.10,2013-06-22 02:18:00,
2013-06-21 19:33:00,64.5,55.0,29.92,SSE,153,6.0,8.0,70,0.00,,,0.00,0,weatherlink.com 1.10,2013-06-22 02:33:00,
2013-06-21 19:48:00,64.3,55.0,29.92,SE,145,2.0,6.0,71,0.00,,,0.00,0,weatherlink.com 1.10,2013-06-22 02:48:00,
2013-06-21 20:03:00,62.9,54.0,29.92,South,169,3.0,8.0,73,0.00,,,0.00,0,weatherlink.com 1.10,2013-06-22 03:03:00,
2013-06-21 20:18:00,61.1,54.0,29.92,SE,137,3.0,7.0,76,0.00,,,0.00,0,weatherlink.com 1.10,2013-06-22 03:18:00,
2013-06-21 20:33:00,59.8,53.0,29.91,ESE,115,5.0,8.0,79,0.00,,,0.00,0,weatherlink.com 1.10,2013-06-22 03:33:00,
2013-06-21 20:48:00,58.9,53.0,29.91,SSE,156,1.0,5.0,80,0.00,,,0.00,0,weatherlink.com 1.10,2013-06-22 03:48:00,
2013-06-21 21:03:00,58.9,53.0,29.92,SE,126,2.0,7.0,81,0.00,,,0.00,0,weatherlink.com 1.10,2013-06-22 04:03:00,
2013-06-21 21:18:00,58.6,53.0,29.92,SSE,150,2.0,8.0,82,0.00,,,0.00,0,weatherlink.com 1.10,2013-06-22 04:18:00,
2013-06-21 21:33:00,58.2,53.0,29.92,East,90,3.0,6.0,84,0.00,,,0.00,0,weatherlink.com 1.10,2013-06-22 04:33:00,
2013-06-21 21:48:00,57.8,53.0,29.93,SSE,149,2.0,7.0,84,0.00,,,0.00,0,weatherlink.com 1.10,2013-06-22 04:48:00,
2013-06-21 22:03:00,57.6,53.0,29.93,ESE,123,5.0,7.0,85,0.00,,,0.00,0,weatherlink.com 1.10,2013-06-22 05:03:00,
2013-06-21 22:18:00,57.2,53.0,29.93,SSE,148,2.0,6.0,85,0.00,,,0.00,0,weatherlink.com 1.10,2013-06-22 05:18:00,
2013-06-21 22:33:00,56.9,53.0,29.93,SSE,151,2.0,6.0,85,0.00,,,0.00,0,weatherlink.com 1.10,2013-06-22 05:33:00,
2013-06-21 22:48:00,57.5,52.0,29.93,SE,125,2.0,7.0,83,0.00,,,0.00,0,weatherlink.com 1.10,2013-06-22 05:48:00,
2013-06-21 23:03:00,57.6,52.0,29.93,SE,133,4.0,6.0,82,0.00,,,0.00,0,weatherlink.com 1.10,2013-06-22 06:03:00,
2013-06-21 23:18:00,57.3,52.0,29.93,SSE,147,2.0,6.0,82,0.00,,,0.00,0,weatherlink.com 1.10,2013-06-22 06:18:00,
2013-06-21 23:33:00,56.8,51.0,29.93,SE,136,2.0,5.0,82,0.00,,,0.00,0,weatherlink.com 1.10,2013-06-22 06:33:00,
2013-06-21 23:48:00,57.0,51.0,29.93,SSW,192,2.0,7.0,80,0.00,,,0.00,0,weatherlink.com 1.10,2013-06-22 06:48:00,